Volver al catálogo

STARLINK-1536

ActivoComunicacionesVLEO
NORAD 46070·PAYLOAD·🇺🇸 United States

Lanzado Aug 7, 2020 desde Cape Canaveral Space Force Station

Loading…

Próximos Pases (próximas 24 horas)

TLE

ActualizadoSource: CelesTrak SupGP

Época: Sep 15, 2026, 02:18 UTC

1 46070C 20055AV  26258.09631944  .00030042  00000+0  96567-3 0  2580
2 46070  53.1580 300.3096 0001259  92.7574  75.9028 15.31699896    12

Sigue STARLINK-1536 en tiempo real con AllMySat

Download on the App Store